This is the latest recevied weather packets stored in our database for station/object XQ6AK-15. If no packets are shown the sender has not sent any weather packets the latest 10 day(s).
| Time | Temp. | Humidity | Pressure | Rain* | Wind** | Luminosity | Snow |
|---|---|---|---|---|---|---|---|
| 1787971255 | 8.33° C | 99% | 1006.9 hPa | 0 mm | - | 0 W/m² | - |
| 1787970954 | 8.33° C | 99% | 1007.1 hPa | 0 mm | - | 0 W/m² | - |
| 1787970649 | 8.33° C | 99% | 1007 hPa | 0 mm | - | 0 W/m² | - |
| 1787970349 | 8.33° C | 99% | 1007.1 hPa | 0 mm | - | 0 W/m² | - |
| 1787970048 | 8.33° C | 99% | 1007.1 hPa | 0 mm | - | 0 W/m² | - |
| 1787969747 | 8.33° C | 99% | 1007.3 hPa | 4.83 mm | - | 0 W/m² | - |
| 1787969446 | 8.33° C | 99% | 1007.2 hPa | 18.03 mm | - | 0 W/m² | - |
| 1787969140 | 8.33° C | 99% | 1007.2 hPa | 13.72 mm | - | 0 W/m² | - |
| 1787968835 | 8.33° C | 99% | 1006.6 hPa | 6.6 mm | - | 0 W/m² | - |
| 1787968528 | 8.33° C | 99% | 1006.5 hPa | 4.83 mm | - | 0 W/m² | - |
| 1787968224 | 8.33° C | 99% | 1006.3 hPa | 3.05 mm | - | 0 W/m² | - |
| 1787967920 | 8.33° C | 99% | 1006.1 hPa | 0 mm | - | 0 W/m² | - |
| 1787967615 | 8.33° C | 99% | 1006 hPa | 0 mm | - | 0 W/m² | - |
| 1787967310 | 8.33° C | 99% | 1006.3 hPa | 0 mm | - | 0 W/m² | - |
| 1787967006 | 8.33° C | 99% | 1006.1 hPa | 0 mm | - | 0 W/m² | - |
| 1787966702 | 8.33° C | 99% | 1006.2 hPa | 0 mm | - | 0 W/m² | - |
| 1787966401 | 8.33° C | 99% | 1006.1 hPa | 0 mm | - | 0 W/m² | - |
| 1787966097 | 8.33° C | 99% | 1006.1 hPa | 0 mm | - | 0 W/m² | - |
| 1787965795 | 8.33° C | 99% | 1006.1 hPa | 0 mm | - | 0 W/m² | - |
| 1787965490 | 8.33° C | 99% | 1005.8 hPa | 0 mm | - | 0 W/m² | - |
| 1787965190 | 8.33° C | 99% | 1006 hPa | 0 mm | - | 0 W/m² | - |
| 1787964884 | 8.33° C | 99% | 1005.9 hPa | 1.78 mm | - | 0 W/m² | - |
| 1787964579 | 8.33° C | 99% | 1006.2 hPa | 3.05 mm | - | 0 W/m² | - |
| 1787964275 | 8.33° C | 99% | 1006.1 hPa | 3.05 mm | - | 0 W/m² | - |
| 1787963974 | 8.33° C | 99% | 1006 hPa | 1.78 mm | - | 0 W/m² | - |
* Rain latest hour (hover to see other rain measurements)
** Current wind speed in m/s (hover to see current wind gust speed)